TAM4520 SBSP-SBFI

Flight info

Callsign TAM4520
Flight time 1h 10m
Altitude 32000
Route ASETA UZ152 UPORU
Aircraft A320/M-SDE3FGHIRWY/LB1

Departure

Time 2026-05-06 23:40
Airport Congonhas–Deputado Freitas Nobre Airport (SBSP)

Arrival

Time 2026-05-07 00:50
Airport Cataratas International Airport (SBFI)
Time Latitude Longitude Altitude Speed Heading
2026-05-06 23:28 -23.62426 -46.66026 2610 ft 0 kts 237°
2026-05-06 23:33 -23.62421 -46.66018 2609 ft 2 kts 236°
2026-05-06 23:34 -23.62412 -46.66003 2608 ft 2 kts 237°
2026-05-06 23:34 -23.62403 -46.65987 2608 ft 2 kts 290°
2026-05-06 23:34 -23.62415 -46.65975 2608 ft 2 kts 330°
2026-05-06 23:34 -23.62423 -46.65970 2609 ft 1 kts 327°
2026-05-06 23:35 -23.62424 -46.65969 2609 ft 0 kts 326°
2026-05-06 23:37 -23.62423 -46.65970 2609 ft 1 kts 326°
2026-05-06 23:37 -23.62400 -46.65987 2608 ft 6 kts 326°
2026-05-06 23:37 -23.62348 -46.66023 2607 ft 12 kts 334°
2026-05-06 23:38 -23.62256 -46.66044 2604 ft 15 kts 353°
2026-05-06 23:38 -23.62151 -46.66103 2589 ft 8 kts 327°
2026-05-06 23:38 -23.62124 -46.66122 2591 ft 0 kts 327°
2026-05-06 23:38 -23.62114 -46.66129 2591 ft 4 kts 328°
2026-05-06 23:39 -23.62064 -46.66138 2591 ft 11 kts 10°
2026-05-06 23:39 -23.62049 -46.66075 2594 ft 10 kts 133°
2026-05-06 23:39 -23.62132 -46.66017 2600 ft 35 kts 147°
2026-05-06 23:39 -23.62573 -46.65711 2615 ft 112 kts 147°
2026-05-06 23:40 -23.63397 -46.65136 2693 ft 162 kts 147°
2026-05-06 23:40 -23.64334 -46.64502 3548 ft 159 kts 144°
2026-05-06 23:40 -23.65385 -46.64057 4212 ft 176 kts 176°
2026-05-06 23:40 -23.66639 -46.64156 4520 ft 188 kts 182°
2026-05-06 23:41 -23.68013 -46.64283 4707 ft 207 kts 182°
2026-05-06 23:41 -23.69506 -46.64413 4859 ft 231 kts 182°
2026-05-06 23:41 -23.71202 -46.64556 5117 ft 256 kts 183°
2026-05-06 23:41 -23.73035 -46.64873 5535 ft 276 kts 200°
2026-05-06 23:42 -23.74659 -46.66024 6219 ft 283 kts 228°
2026-05-06 23:42 -23.75624 -46.67890 6944 ft 287 kts 257°
2026-05-06 23:42 -23.75658 -46.70044 7665 ft 287 kts 285°
2026-05-06 23:42 -23.75023 -46.72090 8429 ft 288 kts 291°
2026-05-06 23:43 -23.74330 -46.74152 9210 ft 290 kts 292°
2026-05-06 23:43 -23.73630 -46.76224 9960 ft 293 kts 292°
2026-05-06 23:43 -23.72915 -46.78341 10516 ft 303 kts 292°
2026-05-06 23:43 -23.72167 -46.80559 10671 ft 325 kts 291°
2026-05-06 23:44 -23.71361 -46.82960 10791 ft 347 kts 291°
2026-05-06 23:44 -23.70506 -46.85522 10907 ft 368 kts 291°
2026-05-06 23:44 -23.69626 -46.88163 11137 ft 380 kts 291°
2026-05-06 23:44 -23.68716 -46.90904 11626 ft 386 kts 291°
2026-05-06 23:45 -23.67861 -46.93708 12128 ft 391 kts 283°
2026-05-06 23:45 -23.67657 -46.96680 12615 ft 397 kts 265°
2026-05-06 23:45 -23.68262 -46.99631 13117 ft 401 kts 253°
2026-05-06 23:45 -23.69076 -47.02529 13621 ft 405 kts 252°
2026-05-06 23:46 -23.69916 -47.05484 14106 ft 409 kts 252°
2026-05-06 23:46 -23.70765 -47.08461 14576 ft 412 kts 252°
2026-05-06 23:46 -23.71617 -47.11461 15072 ft 415 kts 252°
2026-05-06 23:46 -23.72473 -47.14488 15578 ft 417 kts 252°
2026-05-06 23:47 -23.73328 -47.17534 16087 ft 420 kts 252°
2026-05-06 23:47 -23.74174 -47.20557 16598 ft 422 kts 252°
2026-05-06 23:47 -23.75034 -47.23633 17123 ft 425 kts 252°
2026-05-06 23:47 -23.75901 -47.26729 17632 ft 427 kts 252°
2026-05-06 23:48 -23.76772 -47.29848 18134 ft 430 kts 252°
2026-05-06 23:48 -23.77649 -47.32988 18594 ft 432 kts 252°
2026-05-06 23:48 -23.78529 -47.36131 19035 ft 434 kts 251°
2026-05-06 23:48 -23.79406 -47.39260 19477 ft 435 kts 251°
2026-05-06 23:49 -23.80291 -47.42429 19940 ft 435 kts 251°
2026-05-06 23:49 -23.81166 -47.45567 20388 ft 436 kts 251°
2026-05-06 23:49 -23.82050 -47.48747 20819 ft 437 kts 251°
2026-05-06 23:49 -23.82936 -47.51947 21248 ft 438 kts 251°
2026-05-06 23:50 -23.83822 -47.55147 21651 ft 440 kts 251°
2026-05-06 23:50 -23.85596 -47.61532 22428 ft 441 kts 251°
2026-05-06 23:50 -23.86488 -47.64749 22798 ft 442 kts 251°
2026-05-06 23:51 -23.87380 -47.67967 23157 ft 443 kts 251°
2026-05-06 23:51 -23.88275 -47.71203 23508 ft 444 kts 251°
2026-05-06 23:51 -23.89157 -47.74404 23811 ft 445 kts 251°
2026-05-06 23:51 -23.90054 -47.77658 24098 ft 446 kts 251°
2026-05-06 23:52 -23.90952 -47.80915 24391 ft 446 kts 251°
2026-05-06 23:52 -23.91849 -47.84168 24697 ft 447 kts 251°
2026-05-06 23:52 -23.92737 -47.87388 25028 ft 446 kts 251°
2026-05-06 23:52 -23.93630 -47.90631 25479 ft 442 kts 251°
2026-05-06 23:53 -23.94515 -47.93842 25955 ft 439 kts 251°
2026-05-06 23:53 -23.95386 -47.97001 26432 ft 436 kts 251°
2026-05-06 23:53 -23.96256 -48.00167 26927 ft 433 kts 251°
2026-05-06 23:53 -23.97117 -48.03315 27438 ft 429 kts 251°
2026-05-06 23:54 -23.97972 -48.06436 27969 ft 426 kts 250°
2026-05-06 23:54 -23.98810 -48.09504 28485 ft 423 kts 250°
2026-05-06 23:54 -23.99649 -48.12575 29015 ft 419 kts 250°
2026-05-06 23:54 -24.00479 -48.15629 29562 ft 416 kts 250°
2026-05-06 23:55 -24.01301 -48.18654 30116 ft 413 kts 250°
2026-05-06 23:55 -24.02111 -48.21621 30588 ft 410 kts 250°
2026-05-06 23:55 -24.02926 -48.24599 31001 ft 408 kts 250°
2026-05-06 23:55 -24.03737 -48.27570 31395 ft 407 kts 249°
2026-05-06 23:56 -24.04546 -48.30544 31783 ft 405 kts 249°
2026-05-06 23:56 -24.05343 -48.33473 32079 ft 406 kts 249°
2026-05-06 23:56 -24.06977 -48.39474 32148 ft 418 kts 249°
2026-05-06 23:57 -24.08645 -48.45620 32159 ft 424 kts 250°
2026-05-06 23:57 -24.10311 -48.51802 32164 ft 425 kts 250°
2026-05-06 23:58 -24.11992 -48.58024 32167 ft 425 kts 250°
2026-05-06 23:58 -24.13655 -48.64194 32157 ft 425 kts 250°
2026-05-06 23:59 -24.15333 -48.70420 32165 ft 425 kts 250°
2026-05-06 23:59 -24.16997 -48.76592 32158 ft 425 kts 250°
2026-05-07 00:00 -24.18660 -48.82802 32167 ft 424 kts 250°
2026-05-07 00:00 -24.20042 -48.87962 32165 ft 424 kts 250°
2026-05-07 00:01 -24.21976 -48.95184 32159 ft 424 kts 250°
2026-05-07 00:01 -24.23637 -49.01411 32167 ft 424 kts 250°
2026-05-07 00:02 -24.25274 -49.07595 32166 ft 424 kts 250°
2026-05-07 00:02 -24.26926 -49.13812 32159 ft 424 kts 250°
2026-05-07 00:03 -24.28570 -49.19991 32158 ft 424 kts 250°
2026-05-07 00:03 -24.30223 -49.26230 32161 ft 425 kts 250°
2026-05-07 00:04 -24.31861 -49.32436 32155 ft 424 kts 250°
2026-05-07 00:04 -24.33502 -49.38642 32156 ft 425 kts 250°
2026-05-07 00:05 -24.35143 -49.44879 32161 ft 425 kts 250°
2026-05-07 00:05 -24.36776 -49.51083 32160 ft 425 kts 250°
2026-05-07 00:06 -24.38418 -49.57332 32166 ft 425 kts 251°
2026-05-07 00:06 -24.40049 -49.63548 32167 ft 425 kts 251°
2026-05-07 00:07 -24.41676 -49.69767 32165 ft 425 kts 251°
2026-05-07 00:07 -24.43303 -49.76022 32176 ft 425 kts 251°
2026-05-07 00:08 -24.44924 -49.82246 32178 ft 425 kts 251°
2026-05-07 00:08 -24.46559 -49.88509 32174 ft 426 kts 251°
2026-05-07 00:09 -24.48180 -49.94755 32172 ft 426 kts 251°
2026-05-07 00:09 -24.49804 -50.01014 32162 ft 426 kts 251°
2026-05-07 00:10 -24.51420 -50.07244 32159 ft 426 kts 251°
2026-05-07 00:10 -24.53034 -50.13509 32159 ft 426 kts 251°
2026-05-07 00:11 -24.54650 -50.19778 32164 ft 427 kts 252°
2026-05-07 00:11 -24.56256 -50.26015 32155 ft 427 kts 252°
2026-05-07 00:12 -24.57868 -50.32291 32159 ft 427 kts 251°
2026-05-07 00:12 -24.59478 -50.38572 32155 ft 427 kts 251°
2026-05-07 00:13 -24.61086 -50.44863 32148 ft 427 kts 252°
2026-05-07 00:13 -24.62678 -50.51108 32148 ft 426 kts 252°
2026-05-07 00:14 -24.64279 -50.57408 32144 ft 426 kts 252°
2026-05-07 00:14 -24.65874 -50.63669 32138 ft 426 kts 252°
2026-05-07 00:15 -24.67470 -50.69938 32137 ft 425 kts 252°
2026-05-07 00:15 -24.69056 -50.76182 32137 ft 425 kts 252°
2026-05-07 00:16 -24.70647 -50.82456 32139 ft 425 kts 252°
2026-05-07 00:16 -24.71961 -50.87673 32133 ft 425 kts 252°
2026-05-07 00:17 -24.73791 -50.94960 32138 ft 425 kts 252°
2026-05-07 00:17 -24.75369 -51.01243 32141 ft 424 kts 252°
2026-05-07 00:18 -24.76934 -51.07470 32141 ft 424 kts 252°
2026-05-07 00:18 -24.78238 -51.12678 32140 ft 424 kts 252°
2026-05-07 00:19 -24.79796 -51.18919 32135 ft 423 kts 252°
2026-05-07 00:19 -24.81354 -51.25153 32132 ft 423 kts 252°
2026-05-07 00:20 -24.82916 -51.31414 32131 ft 423 kts 252°
2026-05-07 00:20 -24.84470 -51.37646 32130 ft 424 kts 252°
2026-05-07 00:21 -24.86024 -51.43921 32133 ft 424 kts 252°
2026-05-07 00:21 -24.87581 -51.50205 32131 ft 424 kts 252°
2026-05-07 00:22 -24.89129 -51.56452 32137 ft 424 kts 252°
2026-05-07 00:22 -24.90675 -51.62739 32144 ft 424 kts 253°
2026-05-07 00:23 -24.92213 -51.68986 32143 ft 425 kts 253°
2026-05-07 00:23 -24.93762 -51.75283 32150 ft 424 kts 253°
2026-05-07 00:24 -24.95296 -51.81526 32142 ft 424 kts 253°
2026-05-07 00:24 -24.96830 -51.87804 32141 ft 424 kts 253°
2026-05-07 00:25 -24.98359 -51.94082 32140 ft 423 kts 253°
2026-05-07 00:25 -24.99897 -52.00366 32134 ft 423 kts 253°
2026-05-07 00:26 -25.01422 -52.06607 32131 ft 424 kts 253°
2026-05-07 00:26 -25.02953 -52.12891 32129 ft 424 kts 254°
2026-05-07 00:27 -25.04474 -52.19178 32119 ft 423 kts 254°
2026-05-07 00:27 -25.05988 -52.25433 32114 ft 423 kts 254°
2026-05-07 00:28 -25.07508 -52.31722 32112 ft 424 kts 254°
2026-05-07 00:28 -25.09014 -52.37981 32103 ft 423 kts 254°
2026-05-07 00:29 -25.10530 -52.44262 32099 ft 423 kts 254°
2026-05-07 00:30 -25.13537 -52.56796 32095 ft 423 kts 255°
2026-05-07 00:30 -25.15027 -52.63047 32095 ft 423 kts 255°
2026-05-07 00:31 -25.16534 -52.69334 32091 ft 422 kts 255°
2026-05-07 00:31 -25.18022 -52.75586 32092 ft 423 kts 255°
2026-05-07 00:32 -25.19510 -52.81884 32093 ft 423 kts 255°
2026-05-07 00:32 -25.20996 -52.88166 32092 ft 422 kts 255°
2026-05-07 00:33 -25.22481 -52.94420 32093 ft 422 kts 255°
2026-05-07 00:33 -25.23969 -53.00708 32084 ft 422 kts 255°
2026-05-07 00:34 -25.25438 -53.06936 32079 ft 422 kts 255°
2026-05-07 00:34 -25.26173 -53.10068 31616 ft 421 kts 255°
2026-05-07 00:34 -25.26912 -53.13221 30695 ft 425 kts 255°
2026-05-07 00:35 -25.27659 -53.16406 29767 ft 428 kts 256°
2026-05-07 00:35 -25.28409 -53.19604 28752 ft 431 kts 256°
2026-05-07 00:35 -25.29158 -53.22790 27802 ft 433 kts 256°
2026-05-07 00:35 -25.29919 -53.26024 26775 ft 436 kts 256°
2026-05-07 00:36 -25.30691 -53.29291 25678 ft 441 kts 256°
2026-05-07 00:36 -25.31472 -53.32598 24600 ft 446 kts 256°
2026-05-07 00:36 -25.32252 -53.35927 23528 ft 449 kts 257°
2026-05-07 00:36 -25.33033 -53.39281 22502 ft 448 kts 257°
2026-05-07 00:37 -25.33804 -53.42604 21665 ft 443 kts 257°
2026-05-07 00:37 -25.34568 -53.45895 20808 ft 440 kts 257°
2026-05-07 00:37 -25.35319 -53.49124 19965 ft 437 kts 257°
2026-05-07 00:37 -25.36073 -53.52381 19133 ft 435 kts 257°
2026-05-07 00:38 -25.36819 -53.55618 18294 ft 432 kts 257°
2026-05-07 00:38 -25.37563 -53.58845 17396 ft 429 kts 257°
2026-05-07 00:38 -25.38290 -53.61979 16584 ft 425 kts 257°
2026-05-07 00:38 -25.39023 -53.65131 15782 ft 421 kts 257°
2026-05-07 00:39 -25.39750 -53.68269 14988 ft 419 kts 258°
2026-05-07 00:39 -25.40470 -53.71389 14222 ft 416 kts 258°
2026-05-07 00:39 -25.41182 -53.74487 13438 ft 414 kts 258°
2026-05-07 00:39 -25.41890 -53.77565 12708 ft 411 kts 258°
2026-05-07 00:40 -25.42358 -53.79591 12250 ft 409 kts 258°
2026-05-07 00:40 -25.43284 -53.83613 11382 ft 403 kts 258°
2026-05-07 00:40 -25.43963 -53.86557 11211 ft 385 kts 258°
2026-05-07 00:40 -25.44611 -53.89368 11093 ft 366 kts 258°
2026-05-07 00:41 -25.45220 -53.92010 10978 ft 350 kts 258°
2026-05-07 00:41 -25.45810 -53.94567 10853 ft 336 kts 258°
2026-05-07 00:41 -25.46376 -53.97036 10747 ft 323 kts 259°
2026-05-07 00:41 -25.46915 -53.99406 10619 ft 312 kts 259°
2026-05-07 00:42 -25.47530 -54.01675 10467 ft 305 kts 250°
2026-05-07 00:42 -25.48527 -54.03733 10316 ft 303 kts 237°
2026-05-07 00:42 -25.49797 -54.05568 10188 ft 304 kts 234°
2026-05-07 00:42 -25.51106 -54.07416 10056 ft 304 kts 234°
2026-05-07 00:43 -25.52415 -54.09271 9659 ft 309 kts 234°
2026-05-07 00:43 -25.53745 -54.11163 9276 ft 309 kts 234°
2026-05-07 00:43 -25.55042 -54.13005 8828 ft 304 kts 234°
2026-05-07 00:43 -25.56341 -54.14849 8160 ft 303 kts 235°
2026-05-07 00:44 -25.57637 -54.16694 7537 ft 303 kts 235°
2026-05-07 00:44 -25.58930 -54.18535 6922 ft 302 kts 236°
2026-05-07 00:44 -25.60220 -54.20372 6320 ft 301 kts 236°
2026-05-07 00:44 -25.61509 -54.22209 5719 ft 300 kts 236°
2026-05-07 00:45 -25.62784 -54.24024 5118 ft 297 kts 236°
2026-05-07 00:45 -25.64060 -54.25782 4571 ft 295 kts 234°
2026-05-07 00:45 -25.65394 -54.27544 4123 ft 299 kts 233°
2026-05-07 00:45 -25.66760 -54.29322 3425 ft 304 kts 233°
2026-05-07 00:46 -25.67932 -54.31215 3035 ft 286 kts 252°
2026-05-07 00:46 -25.68362 -54.33222 2979 ft 253 kts 274°
2026-05-07 00:46 -25.68164 -54.35035 2920 ft 222 kts 294°
2026-05-07 00:46 -25.67585 -54.36525 2849 ft 207 kts 302°
2026-05-07 00:47 -25.66986 -54.37913 2812 ft 192 kts 302°
2026-05-07 00:47 -25.66432 -54.39202 2684 ft 176 kts 303°
2026-05-07 00:47 -25.65942 -54.40347 2580 ft 157 kts 304°
2026-05-07 00:47 -25.65386 -54.41316 2489 ft 142 kts 318°
2026-05-07 00:48 -25.64742 -54.42132 2282 ft 140 kts 319°
2026-05-07 00:48 -25.64105 -54.42946 2068 ft 139 kts 320°
2026-05-07 00:48 -25.63469 -54.43758 1873 ft 139 kts 319°
2026-05-07 00:48 -25.62830 -54.44573 1685 ft 141 kts 319°
2026-05-07 00:49 -25.62186 -54.45395 1491 ft 144 kts 315°
2026-05-07 00:49 -25.61523 -54.46242 1284 ft 147 kts 315°
2026-05-07 00:49 -25.60848 -54.47105 1075 ft 148 kts 314°
2026-05-07 00:49 -25.60181 -54.47964 835 ft 148 kts 314°
2026-05-07 00:50 -25.59603 -54.48701 798 ft 92 kts 310°
2026-05-07 00:50 -25.59383 -54.48989 800 ft 18 kts 302°
2026-05-07 00:50 -25.59349 -54.49058 799 ft 4 kts 20°
2026-05-07 00:50 -25.59356 -54.49021 799 ft 8 kts 124°
2026-05-07 00:51 -25.59411 -54.48955 801 ft 15 kts 133°
2026-05-07 00:51 -25.59492 -54.48895 801 ft 16 kts 201°
2026-05-07 00:51 -25.59557 -54.48928 799 ft 10 kts 165°
2026-05-07 00:51 -25.59591 -54.48893 799 ft 4 kts 129°
2026-05-07 00:52 -25.59616 -54.48859 798 ft 7 kts 129°
2026-05-07 00:52 -25.59642 -54.48827 798 ft 3 kts 133°
2026-05-07 00:52 -25.59669 -54.48826 798 ft 6 kts 201°
2026-05-07 00:52 -25.59695 -54.48851 798 ft 3 kts 223°
2026-05-07 00:53 -25.59697 -54.48852 798 ft 0 kts 223°